IST,Max TemperatureF,Mean TemperatureF,Min TemperatureF,Max Dew PointF,MeanDew PointF,Min DewpointF,Max Humidity, Mean Humidity, Min Humidity, Max Sea Level PressureIn, Mean Sea Level PressureIn, Min Sea Level PressureIn, Max VisibilityMiles, Mean VisibilityMiles, Min VisibilityMiles, Max Wind SpeedMPH, Mean Wind SpeedMPH, Max Gust SpeedMPH,PrecipitationIn, CloudCover, Events, WindDirDegrees
2012-9-1,68,62,55,57,53,52,94,77,53,30.33,30.20,30.09,16,7,6,22,17,,0.00,6,,245
2012-9-2,67,61,55,59,56,52,100,83,61,30.33,30.22,30.12,19,6,2,16,12,,0.02,6,Rain,269
2012-9-3,72,62,52,61,55,51,100,79,60,30.35,30.25,30.18,19,6,6,15,8,,0.00,4,,236
2012-9-4,65,56,46,61,52,45,94,78,53,30.36,30.27,30.18,16,6,5,20,13,24,0.00,5,Rain,296
2012-9-5,64,54,45,52,47,45,100,78,48,30.45,30.41,30.36,19,7,6,11,8,,0.00,4,,284
2012-9-6,68,58,48,54,49,45,88,73,49,30.42,30.28,30.18,19,7,6,24,10,31,0.00,3,,248
2012-9-7,69,62,54,61,57,52,94,87,73,30.24,30.21,30.18,19,7,6,23,16,,0.00,5,,255
2012-9-8,69,61,51,61,56,48,100,81,44,30.21,30.05,29.89,12,6,5,14,6,,0.00,4,Rain,159
2012-9-9,67,54,42,57,52,41,100,85,64,29.89,29.67,29.53,19,7,6,20,8,25,0.00,4,,219
2012-9-10,59,54,50,57,53,48,100,92,82,29.74,29.65,29.59,7,6,2,14,10,,0.28,6,Rain,267
2012-9-11,56,50,44,48,44,41,94,79,54,29.98,29.88,29.74,19,6,6,23,15,34,0.01,2,Rain,267
2012-9-12,61,52,44,59,47,39,100,81,54,30.12,29.95,29.86,7,6,5,24,15,,0.03,5,Rain,277
2012-9-13,64,53,42,54,48,40,94,82,64,30.17,30.02,29.83,19,7,4,34,14,47,0.00,5,Rain,250
2012-9-14,62,56,51,55,49,45,94,76,51,30.04,29.90,29.77,19,7,4,29,21,40,0.00,4,Rain,276
2012-9-15,61,56,50,52,50,48,94,81,68,30.06,29.98,29.89,19,7,6,20,14,,0.00,6,Rain,252
2012-9-16,63,56,50,57,50,45,94,82,63,29.89,29.77,29.71,16,6,6,31,15,38,0.12,5,Rain,246
2012-9-17,58,53,48,50,46,45,93,80,63,29.83,29.77,29.71,19,6,6,24,15,,0.00,3,Rain,240
2012-9-18,56,49,42,46,42,39,93,78,48,30.15,29.96,29.77,19,6,6,23,15,,0.00,2,Rain,280
2012-9-19,59,50,40,48,44,39,95,81,51,30.21,30.16,30.12,16,6,6,16,13,,0.00,4,Rain,258
2012-9-20,59,54,49,52,50,48,94,86,67,30.12,30.01,29.95,19,6,2,20,11,,0.00,6,Rain,244
2012-9-21,54,44,35,52,45,34,100,86,62,30.12,30.05,29.98,11,6,2,18,10,,0.00,4,Rain,357
2012-9-22,55,44,32,46,39,34,100,81,53,30.17,30.11,30.04,19,6,6,16,7,,0.00,3,,168
2012-9-23,56,45,34,48,42,34,100,85,66,30.04,29.79,29.53,6,6,6,18,7,,0.00,5,Rain,116
2012-9-24,49,47,45,48,47,45,100,95,74,29.50,29.30,29.12,16,6,3,21,16,32,1.10,6,Rain,350
2012-9-25,51,48,46,48,47,46,100,93,82,29.12,29.08,29.03,11,6,2,25,15,33,0.24,6,Rain,326
2012-9-26,58,53,48,50,48,45,100,85,66,29.68,29.38,29.12,6,6,5,26,20,39,0.20,5,Rain,358
2012-9-27,56,50,44,48,45,43,100,83,67,29.83,29.77,29.71,19,7,6,16,11,25,0.00,6,Rain,262
2012-9-28,58,52,46,52,47,43,100,83,58,29.92,29.79,29.74,19,6,4,23,16,,0.04,5,Rain,262
2012-9-29,57,50,42,48,44,39,93,79,59,30.10,30.02,29.92,6,6,6,21,16,,0.00,4,,254
2012-9-30,60,56,51,57,51,46,94,81,66,29.95,29.81,29.77,19,7,6,23,18,34,0.03,5,Rain,231